RH
30 23 23 26 29 31 33 36 36 36 38 38 34 32 31 27 26 21 19 29 32 28 25 22 24 22 24 34 37 36 36 38 42 41 40 39 37 30 23 21 22 23 24 25 26 28 30 31 32 37 44 52 60 65 67 68 70 70 69 69 66 59 51 46 43 41 42 43 41 39 38 36 36 36 37 36 34 35 37 38 38 38 39 40 42 43
31 24 25 30 32 36 39 40 42 42 42 40 30 27 28 25 23 19 19 27 29 28 25 22 24 25 31 40 38 37 39 41 43 42 41 40 35 27 22 23 23 23 25 25 27 29 30 33 36 42 53 62 69 72 74 74 75 74 73 71 67 59 52 47 44 42 44 44 41 40 38 36 35 34 34 33 34 36 37 37 38 39 39 40 40 40
24 23 28 33 35 42 45 43 43 40 36 30 25 25 26 23 22 21 22 26 27 27 25 25 27 29 37 40 36 37 37 37 39 38 38 35 30 24 21 24 24 25 29 29 30 33 37 42 46 52 62 69 73 76 76 77 76 75 73 71 65 58 51 46 43 43 43 42 40 40 39 37 35 34 34 35 37 38 37 37 37 38 39 40 40 40
20 22 32 42 43 42 35 30 33 33 27 23 22 25 24 23 26 27 25 24 27 29 29 29 27 30 40 39 34 34 32 31 33 32 32 29 25 23 23 26 29 33 37 37 38 43 50 57 61 64 69 73 76 78 77 77 77 75 73 70 65 58 51 45 43 43 43 41 40 41 42 41 39 38 38 38 38 37 36 37 37 38 38 39 40 40
23 28 39 47 42 33 25 23 27 26 23 23 23 23 25 24 26 27 26 25 26 31 33 28 23 26 36 40 36 31 28 29 29 28 28 26 24 25 28 32 35 37 40 44 47 52 60 65 69 71 73 76 78 78 76 74 74 72 71 71 68 60 51 45 43 41 41 41 41 41 41 41 39 39 38 37 37 36 36 36 36 37 38 38 39 40
26 37 43 38 30 27 24 22 25 26 24 25 24 24 25 26 27 27 27 27 25 27 30 27 26 25 28 39 40 30 29 30 28 28 26 25 27 30 34 37 40 43 46 51 56 61 66 68 70 71 71 74 74 72 68 66 68 68 67 65 64 62 54 45 41 39 39 39 39 38 38 38 37 38 38 38 37 37 37 37 36 37 37 37 38 38
28 36 38 32 29 27 22 20 25 28 28 27 25 27 28 29 32 29 28 31 28 25 27 27 30 28 25 39 41 29 31 32 27 28 27 26 29 33 39 42 47 53 56 60 62 63 64 64 64 63 62 62 60 57 55 54 59 62 62 62 61 62 57 44 37 37 37 37 37 37 38 39 38 38 38 38 38 39 39 38 38 38 37 37 37 37
30 29 30 31 26 22 21 22 24 28 30 28 25 27 30 31 32 31 30 31 28 26 28 24 27 30 27 38 43 32 31 33 30 31 32 33 35 38 44 48 54 60 60 60 58 56 55 52 50 48 47 46 43 43 42 44 48 50 55 61 59 61 57 43 35 36 38 38 38 37 38 40 39 38 38 38 39 40 41 40 38 38 38 37 36 36
33 27 29 31 24 20 23 23 26 31 30 25 24 26 29 31 31 29 29 29 27 30 30 21 23 32 28 32 42 38 34 38 38 40 43 43 44 48 53 56 56 56 53 49 46 44 42 36 35 36 37 37 36 36 37 37 38 38 44 51 56 62 57 42 36 38 39 40 40 39 40 41 41 41 41 41 40 39 40 40 39 38 38 38 37 36
31 31 38 36 25 23 25 24 28 32 26 24 29 31 31 31 30 29 27 28 31 32 29 23 23 33 34 28 31 37 43 47 44 45 49 50 53 57 58 57 50 45 42 39 36 33 30 29 33 37 37 37 37 37 38 38 38 38 40 46 54 61 53 41 41 43 43 44 43 41 41 42 43 44 45 45 42 41 41 40 38 37 37 38 38 36
36 47 51 41 31 29 28 29 33 33 28 29 32 29 28 25 25 29 26 24 32 32 27 25 23 33 41 34 33 47 55 55 53 53 55 56 59 58 54 49 42 38 35 33 30 28 29 34 38 40 40 40 40 39 39 39 38 38 41 46 53 55 49 46 48 49 49 49 46 44 44 45 47 48 47 47 46 45 44 42 40 38 36 37 38 36
35 41 38 38 40 35 29 30 36 37 32 29 26 22 24 24 23 28 26 26 35 35 28 25 23 32 39 35 43 56 57 56 60 64 65 64 61 53 46 42 37 35 32 29 28 28 33 38 40 42 41 38 36 35 37 37 35 37 40 43 50 54 52 52 52 52 52 51 50 50 51 52 52 51 50 49 49 48 47 46 43 40 37 37 37 35
25 26 25 35 39 33 28 25 29 32 26 24 23 25 30 32 34 37 35 34 39 36 28 25 29 35 33 32 45 53 52 55 59 63 68 66 57 48 42 38 35 33 30 28 29 31 37 41 41 41 37 31 29 29 32 34 33 34 35 38 49 56 55 54 53 51 50 51 55 58 58 57 54 52 53 52 51 50 48 45 42 40 38 37 36 36
24 26 26 29 30 30 28 23 25 28 25 24 25 30 36 41 51 56 46 43 44 36 27 24 31 37 31 32 43 46 47 53 55 60 64 58 48 43 38 36 35 32 27 27 28 33 39 42 39 34 29 25 23 22 25 31 34 42 49 54 61 62 57 55 54 53 55 57 60 62 59 58 55 54 54 52 50 47 44 42 41 40 39 37 37 40
28 26 24 25 25 26 27 28 31 29 25 26 24 27 35 39 52 58 48 48 52 44 34 31 35 39 37 36 38 39 43 49 52 54 52 49 45 40 36 34 33 30 25 23 27 35 40 39 34 29 25 22 21 22 29 37 42 50 58 60 61 61 60 60 60 59 61 61 60 60 58 57 55 53 51 48 45 43 41 41 41 40 39 39 43 49
28 23 25 29 28 25 27 33 36 32 27 26 24 28 36 36 40 47 44 45 52 52 44 36 33 33 35 38 35 36 43 47 49 47 46 52 47 37 36 34 30 29 24 22 31 39 39 36 30 26 24 23 25 32 38 42 43 48 55 57 58 62 62 62 63 61 62 61 59 57 54 52 49 46 44 41 40 40 40 42 42 42 43 47 53 57
28 25 26 29 30 29 32 35 35 34 28 25 29 33 35 32 34 44 46 39 43 51 44 33 33 31 32 38 37 36 42 45 46 46 50 52 44 37 38 33 30 28 22 25 36 39 36 32 28 25 25 29 36 42 43 43 46 54 61 62 62 62 59 60 62 61 60 58 54 51 47 43 40 38 38 37 39 41 43 45 46 47 51 56 56 54
35 33 28 27 28 31 38 38 33 35 31 27 33 35 32 33 33 39 47 47 48 53 43 34 42 44 38 41 41 40 46 49 47 50 53 48 40 39 36 32 32 25 21 31 39 37 34 30 27 27 32 41 47 46 43 45 51 58 62 63 62 61 59 59 58 57 54 49 44 42 39 38 37 37 38 40 44 47 47 50 52 53 54 55 53 51
37 35 29 29 29 29 34 33 29 33 33 29 30 30 33 42 41 38 48 59 60 60 53 43 47 48 41 42 45 46 51 53 50 51 52 46 40 37 31 31 32 23 26 39 38 33 32 27 27 33 37 46 52 48 47 51 52 53 56 57 56 56 54 51 48 47 45 40 37 36 36 38 40 42 46 49 50 50 49 51 52 52 52 52 52 53
38 35 30 29 29 27 26 26 27 30 30 29 29 30 33 39 43 44 47 50 54 61 64 61 57 47 37 38 43 47 50 52 53 54 50 44 37 31 29 32 29 23 32 41 36 31 29 25 30 35 38 46 50 49 50 50 48 50 53 51 49 48 44 42 42 41 38 36 35 36 39 43 46 50 53 52 50 49 48 50 52 54 57 59 61 62
38 35 33 28 27 27 25 25 27 28 30 33 36 41 43 39 41 45 45 45 51 58 63 72 71 49 33 35 40 43 47 48 52 52 46 41 33 27 30 33 27 24 32 37 33 29 27 27 30 33 42 50 46 42 42 41 43 50 51 47 46 44 40 37 39 39 37 37 39 43 46 49 52 53 51 48 48 48 50 57 62 64 64 64 64 63
37 36 38 35 30 27 26 29 30 28 29 33 37 43 44 42 44 49 53 53 54 56 57 72 82 58 34 34 36 38 43 44 45 45 42 37 30 27 32 32 26 25 30 31 30 30 28 28 30 35 46 48 41 38 37 38 43 47 45 41 39 39 39 40 41 41 40 42 46 49 49 50 50 48 48 48 48 51 60 65 65 62 61 60 59 58
43 40 44 43 33 26 29 35 36 32 30 31 36 39 39 42 44 48 58 57 54 55 52 63 79 60 34 33 33 32 39 41 39 40 38 34 28 27 30 28 24 26 29 28 28 29 28 29 34 44 49 46 43 43 41 42 45 44 42 40 36 36 39 42 42 42 45 50 51 50 47 47 47 47 48 48 48 56 66 64 58 57 57 55 54 52
46 42 44 41 29 26 33 35 35 35 33 35 39 38 40 46 45 47 56 57 57 59 55 68 84 61 32 30 29 28 36 39 37 37 36 32 26 26 28 25 25 28 29 28 27 26 28 34 40 44 44 42 44 47 47 46 45 41 39 37 36 38 40 42 45 48 51 53 50 48 47 47 48 49 50 51 53 59 62 57 53 52 52 51 52 52
43 35 36 39 35 35 38 36 36 36 33 35 39 40 45 54 59 59 57 57 62 60 57 76 86 57 30 30 28 28 37 39 38 37 34 30 28 28 28 26 28 29 28 27 26 26 30 38 41 39 36 37 41 47 50 48 43 40 38 37 39 42 43 47 52 52 52 50 48 48 48 50 51 52 53 54 54 54 52 51 51 50 51 53 55 58
43 33 32 37 42 45 44 41 37 34 33 35 40 47 54 61 64 56 50 59 66 61 60 73 74 51 34 33 32 33 39 41 41 38 31 28 30 30 28 27 28 29 27 26 27 28 31 34 36 33 30 33 41 48 50 48 42 39 40 41 44 46 50 54 55 53 51 50 50 51 50 52 52 52 52 52 51 51 52 54 56 56 57 59 62 65
43 41 37 32 36 41 41 38 31 30 36 40 46 56 60 66 67 55 51 57 57 62 70 67 60 55 47 40 37 39 43 46 44 37 31 30 32 31 28 29 29 26 26 26 27 30 32 32 33 29 27 35 46 50 50 48 43 41 44 47 50 53 55 55 53 52 52 53 52 52 52 53 53 52 53 56 57 59 60 61 62 62 62 64 67 71
38 40 44 43 43 38 35 35 31 33 40 41 50 61 60 66 73 65 59 54 51 71 80 56 47 59 56 43 41 44 46 48 43 35 31 31 33 31 28 29 30 26 26 29 29 31 32 33 32 30 33 45 52 53 53 50 46 46 49 51 54 57 55 53 53 54 54 54 52 51 52 53 56 58 61 64 65 65 63 63 63 63 65 68 70 73
39 36 51 62 57 43 37 38 36 37 42 43 50 55 51 60 72 72 67 55 53 73 75 51 48 58 53 43 44 46 47 46 42 35 31 31 32 30 29 30 31 29 30 31 32 32 30 30 32 35 42 52 54 54 54 51 49 50 53 54 56 57 55 54 56 54 53 52 51 51 54 56 60 65 67 67 66 65 63 63 63 65 68 72 74 75
44 38 61 75 67 50 39 38 39 41 45 47 49 47 44 50 59 65 65 55 51 60 56 48 54 56 46 43 45 44 42 40 38 34 33 34 32 30 32 33 33 34 33 32 35 34 29 29 34 41 50 56 56 57 54 50 51 53 55 57 56 56 57 57 57 55 53 52 52 55 58 61 65 68 68 67 65 64 65 64 67 70 73 76 76 77
45 46 68 72 60 48 38 38 42 42 44 46 45 42 42 47 51 57 60 55 56 61 53 52 63 58 42 40 44 43 39 37 35 33 35 36 31 30 34 36 36 35 33 34 36 33 31 35 38 44 55 59 56 55 54 52 55 57 57 57 56 58 59 58 56 53 52 54 57 60 62 65 69 70 68 68 66 66 68 70 72 75 77 79 80 80
45 48 60 57 49 44 39 40 40 39 48 56 55 48 44 48 51 53 54 53 56 62 62 63 67 56 40 40 46 44 39 39 37 34 36 34 29 31 37 39 38 34 34 39 35 27 31 39 39 43 55 60 56 54 53 54 58 58 57 57 59 62 60 56 55 53 54 58 61 63 67 70 72 71 69 69 69 70 74 76 78 80 81 82 84 85
58 49 47 49 48 42 37 37 37 42 51 52 47 43 40 42 45 45 46 45 45 51 61 64 57 46 42 46 50 47 42 40 38 37 37 33 28 32 37 38 36 34 37 39 32 28 35 41 41 48 58 59 57 55 55 57 59 59 58 60 63 63 59 55 56 57 60 64 64 67 72 74 73 73 72 72 73 76 79 82 83 84 85 87 89 91
78 56 44 49 48 43 41 38 39 45 45 37 32 33 35 38 42 45 45 43 40 42 48 51 46 44 49 51 50 49 44 39 40 39 34 29 29 33 36 35 34 36 38 34 30 33 42 44 45 55 63 59 54 56 58 58 59 60 62 64 64 62 59 57 60 63 65 66 68 73 76 76 76 76 76 77 79 82 85 87 88 89 90 93 95 96
73 54 51 56 51 45 45 45 47 47 41 37 35 32 33 37 38 42 44 42 42 43 44 49 51 50 52 51 47 44 40 39 42 37 28 26 30 34 35 35 36 38 36 33 33 38 46 48 49 58 64 60 56 57 59 59 60 64 67 68 66 63 61 63 66 68 68 69 74 79 79 79 80 80 81 83 85 88 91 93 95 96 97 98 99 100
54 48 52 54 48 45 46 51 53 44 36 40 41 36 37 40 40 47 55 48 41 44 48 53 55 52 51 50 44 40 42 44 41 31 25 28 30 32 34 35 36 35 33 35 37 41 47 50 53 60 65 62 59 60 60 61 64 68 69 69 68 65 64 68 70 69 70 75 81 83 81 82 84 85 87 90 93 96 97 98 99 100 100 100 100 100
47 46 44 43 48 49 49 51 47 39 37 41 42 36 36 40 39 49 64 57 41 43 51 54 55 55 52 48 43 42 46 45 33 23 24 30 30 31 34 36 36 33 33 38 41 43 49 51 54 63 65 61 60 61 62 64 68 71 71 69 68 68 69 71 72 71 74 81 84 85 85 87 89 92 94 97 99 100 100 100 101 100 100 101 100 100
47 43 38 42 50 48 47 51 52 51 45 37 35 33 33 37 36 42 61 63 45 42 50 53 56 58 52 47 47 48 47 41 29 21 22 27 30 31 33 36 37 34 34 40 43 46 51 52 55 60 61 59 61 64 65 66 67 70 73 71 70 71 73 73 73 75 80 84 86 88 90 92 95 97 99 100 100 101 101 100 100 100 100 100 100 101
44 44 41 43 47 46 48 52 56 60 49 33 31 34 33 36 37 45 64 64 46 41 48 52 57 56 50 49 53 53 48 40 31 23 22 26 30 31 32 34 34 33 36 41 46 51 54 54 55 57 57 60 65 66 68 70 69 70 74 74 73 75 76 75 75 79 84 89 91 93 94 97 99 100 100 100 101 101 101 101 100 101 101 102 102 102
47 45 42 43 44 47 53 51 49 49 41 30 32 34 34 38 44 56 66 58 46 46 49 52 56 53 48 51 55 54 48 40 34 27 23 26 31 32 33 34 33 34 38 42 49 55 56 55 55 54 56 63 68 68 70 73 73 75 78 78 77 78 78 77 79 85 91 94 95 95 96 99 101 101 100 101 102 102 101 100 101 102 102 103 103 102
58 50 45 47 48 51 57 55 47 41 34 31 34 34 36 44 52 58 57 48 45 47 47 51 54 50 49 54 54 50 44 36 31 26 23 27 32 32 34 35 35 37 41 45 52 56 56 56 56 55 57 64 69 70 72 75 77 78 80 80 79 79 79 80 85 92 96 97 97 97 99 103 104 103 104 104 103 102 101 101 103 103 102 102 102 101
56 53 48 51 49 48 55 57 51 44 35 32 34 34 39 50 52 47 41 40 43 45 46 50 52 49 51 54 52 48 41 31 25 24 25 30 33 34 35 36 37 40 44 47 53 56 57 58 58 57 59 67 72 73 74 77 79 80 80 81 81 81 83 87 93 98 99 99 99 100 103 105 105 103 105 105 103 101 101 101 102 101 100 101 101 99
46 45 42 46 46 45 53 58 54 45 37 32 35 39 42 44 40 35 36 39 42 45 47 50 50 50 52 52 50 45 37 27 24 26 31 33 35 37 36 36 40 44 46 49 54 57 59 61 60 59 61 68 74 76 77 80 82 82 83 83 83 85 89 94 98 100 101 102 103 104 104 103 102 102 102 103 103 103 102 101 100 99 100 101 100 98
47 43 37 41 45 44 47 48 40 35 34 33 33 35 34 33 34 36 39 40 42 46 49 50 49 50 51 51 48 38 29 26 28 32 34 35 37 38 37 38 43 46 48 54 58 59 61 66 68 66 65 71 77 78 80 83 83 84 86 86 87 91 95 98 100 101 101 102 104 106 104 101 99 100 102 103 104 103 102 100 99 100 99 98 97 97
42 39 33 39 45 42 38 36 32 32 35 35 32 31 31 34 39 41 41 42 44 46 49 50 50 49 49 47 40 30 26 29 33 35 36 38 39 38 39 43 46 48 52 58 60 59 63 70 74 70 69 76 82 81 82 85 84 85 88 89 93 97 98 99 101 101 101 102 104 104 103 100 100 101 103 104 103 102 101 100 100 100 98 96 96 95
36 36 34 38 41 38 32 30 31 32 31 32 34 35 35 38 41 43 44 45 46 47 49 50 49 48 46 41 32 27 28 33 36 37 37 38 39 41 44 47 47 50 56 59 59 62 67 74 78 76 78 85 86 83 85 87 85 86 90 94 97 100 99 100 101 100 102 104 104 103 103 103 102 101 103 103 102 101 101 99 99 99 97 97 98 96
36 34 35 36 38 38 34 29 29 31 29 30 35 39 41 42 41 43 45 46 46 49 51 50 48 47 43 35 29 28 31 35 39 38 36 38 43 46 48 48 49 54 58 59 61 66 71 78 82 83 87 91 89 86 88 88 87 89 94 97 99 100 100 101 100 101 104 106 105 105 105 104 102 100 101 102 102 101 99 95 97 100 99 98 99 98
37 36 37 36 35 36 32 28 29 31 31 32 35 36 39 41 42 44 47 48 50 52 52 49 48 45 38 30 28 31 34 35 38 38 37 41 48 50 49 49 52 56 58 60 64 69 74 81 86 88 92 94 91 89 91 91 91 94 97 100 101 100 100 101 101 102 104 105 105 105 102 101 101 100 100 101 101 100 99 96 97 100 100 100 101 101
40 41 37 35 36 36 33 30 30 31 31 34 35 35 36 38 43 46 48 51 53 53 51 49 47 43 37 31 29 34 37 36 37 40 42 46 50 50 49 50 53 59 63 65 67 71 79 85 88 91 95 96 93 93 95 96 95 97 100 102 101 100 100 101 101 102 102 102 102 102 100 100 101 100 100 100 100 99 98 97 100 104 102 100 100 101
43 42 37 38 43 41 35 29 26 26 26 28 33 37 38 38 42 46 49 53 55 52 50 48 46 43 40 36 35 37 37 34 37 42 47 49 50 49 50 52 57 63 67 68 69 74 82 88 89 93 97 98 97 97 99 99 97 98 102 103 101 100 101 102 102 101 101 100 100 100 100 100 100 101 101 99 99 98 94 88 89 97 103 103 100 100
37 34 34 38 39 34 28 26 26 25 24 26 32 37 40 42 44 47 49 51 50 49 49 47 45 41 36 35 40 42 38 36 41 47 49 49 50 50 51 55 62 67 70 71 73 79 86 90 92 96 99 100 99 99 100 100 99 101 104 103 101 101 104 104 103 101 100 101 100 100 100 101 100 101 101 99 99 100 97 88 80 80 89 98 101 100
Wind_Speed
2 5 7 6 6 7 5 3 2 2 4 6 8 7 7 10 10 13 12 3 4 7 9 11 12 12 11 11 12 11 10 13 12 9 6 5 6 8 9 10 10 10 9 8 6 5 4 2 4 6 9 11 13 14 15 17 17 17 17 17 15 12 10 9 8 8 8 8 7 7 8 9 9 10 10 11 11 11 13 14 15 15 15 16 17 17
1 7 7 5 5 4 3 0 2 2 4 4 6 8 7 6 10 16 12 2 5 7 9 11 13 9 8 11 11 11 12 14 13 10 8 8 9 9 10 12 11 9 6 4 5 5 4 4 6 8 13 17 19 20 22 22 21 20 19 18 16 12 10 10 9 9 9 9 8 8 9 10 10 11 11 12 13 14 15 16 16 16 17 18 19 19
5 8 5 4 2 2 1 2 2 3 4 4 4 7 7 7 11 12 5 4 3 7 7 10 11 4 9 10 12 13 12 12 12 12 10 10 11 11 11 11 9 8 7 7 8 10 10 10 11 12 15 20 22 24 25 25 24 21 19 17 15 13 12 11 11 11 11 10 10 10 11 11 12 12 13 14 14 14 14 15 16 17 17 17 18 19
5 5 4 2 2 3 2 0 3 4 3 4 5 6 8 11 11 7 5 7 9 6 5 9 9 1 7 8 12 13 12 12 14 15 14 12 13 13 11 10 8 9 9 9 11 13 14 15 16 16 18 21 24 25 26 26 23 21 19 18 17 14 13 13 13 13 13 12 12 12 12 12 13 13 13 13 13 13 14 15 16 16 16 16 17 19
6 3 2 1 2 3 3 2 5 6 5 6 5 5 8 12 12 11 12 16 11 2 2 11 8 3 6 6 10 10 11 13 13 15 15 13 13 12 10 10 10 10 10 11 11 14 15 16 18 19 21 22 23 23 24 25 24 22 22 21 19 17 16 15 15 15 14 14 13 13 12 12 13 13 13 13 13 13 15 16 16 16 16 17 18 18
6 2 1 1 2 2 3 4 6 7 7 5 3 2 8 13 16 17 16 14 9 1 5 9 8 1 4 7 9 7 10 13 11 13 13 11 11 10 10 10 11 11 11 11 12 13 15 17 19 20 21 22 22 22 24 25 24 24 24 22 21 19 17 16 16 16 15 15 15 14 13 13 14 14 14 14 14 15 16 17 17 17 18 18 19 19
3 1 2 1 2 2 6 6 4 4 7 5 2 1 8 13 15 17 15 8 5 5 5 5 5 6 3 6 9 8 11 12 11 11 11 9 9 9 10 10 11 11 11 11 12 14 16 19 20 21 22 23 24 25 27 28 26 26 26 26 24 22 19 17 17 17 17 18 17 17 16 15 16 16 16 16 16 17 17 18 19 19 18 18 20 21
2 1 2 2 2 6 9 7 4 4 5 4 2 5 11 14 14 14 11 5 4 7 4 1 2 7 6 4 8 8 11 11 10 10 9 8 9 10 12 12 10 10 10 10 11 15 18 20 22 24 25 25 27 28 29 29 28 27 27 26 26 24 19 17 18 19 20 20 20 19 18 18 18 19 19 20 19 18 18 19 19 19 20 20 21 22
1 3 5 3 5 7 7 8 6 3 3 5 7 11 14 13 12 11 8 4 4 4 1 2 4 7 8 2 6 7 8 9 8 9 9 9 10 12 13 12 11 10 11 13 15 17 21 25 26 26 26 27 29 29 29 29 28 29 28 27 25 21 17 17 20 21 21 22 22 21 20 20 20 20 21 21 22 21 21 21 21 21 22 22 22 22
0 2 3 2 4 5 7 9 4 1 3 8 12 14 12 9 7 7 4 2 3 3 3 8 10 8 10 5 1 2 5 5 6 6 7 9 10 10 10 11 13 13 13 15 19 21 24 25 25 25 26 28 28 27 28 28 28 29 28 23 17 14 16 19 21 21 21 22 22 22 21 21 22 22 22 22 22 23 24 25 26 26 26 25 23 23
1 1 1 1 3 3 6 7 1 3 5 9 11 12 8 5 3 2 2 2 2 3 4 5 7 7 8 3 3 3 4 5 4 5 8 10 10 10 11 12 14 14 14 15 19 24 24 23 23 24 25 27 28 28 28 28 29 29 26 20 16 16 19 21 21 21 21 20 21 22 22 21 21 21 21 21 22 24 26 27 28 28 29 28 26 24
2 2 1 1 1 2 4 4 2 3 7 8 8 10 6 1 1 1 2 0 3 6 2 1 7 9 8 3 5 4 5 5 4 6 9 10 11 13 14 15 14 14 15 15 17 21 22 22 23 23 24 26 29 30 29 29 30 29 26 23 23 24 22 21 20 20 20 21 21 21 20 19 19 19 19 20 22 24 25 26 27 29 30 29 26 25
3 2 1 0 1 2 5 5 1 2 4 7 9 10 9 6 5 4 5 5 6 6 2 7 14 9 6 2 6 6 6 5 3 4 4 7 12 15 16 16 14 14 16 15 15 18 20 22 23 23 26 29 31 31 31 31 31 30 29 29 27 24 21 20 20 21 21 20 18 16 15 16 17 18 19 21 22 24 25 26 29 30 29 27 26 24
2 3 1 0 2 0 5 6 4 2 6 10 10 10 8 6 6 6 7 7 8 8 8 13 13 6 5 1 8 7 5 4 2 3 2 7 13 16 15 16 15 14 16 16 15 17 20 21 22 25 29 31 32 33 32 31 30 30 30 30 27 24 22 21 20 18 16 13 11 11 13 15 17 19 21 22 24 26 27 28 29 28 26 26 26 24
3 1 2 3 2 3 6 6 4 3 4 6 6 6 4 2 2 5 6 7 9 12 13 10 5 4 8 2 8 6 5 4 1 4 6 10 13 15 15 15 15 15 16 16 16 17 20 21 24 29 32 32 33 32 29 28 29 29 28 28 26 24 22 19 17 15 13 12 12 13 15 17 19 21 23 24 25 26 27 26 26 26 26 25 24 23
3 2 2 3 1 5 7 3 1 2 1 2 1 3 5 3 2 5 8 9 10 11 9 4 1 3 3 4 7 5 6 4 3 8 10 12 13 14 16 16 14 14 17 17 15 16 19 23 28 32 33 32 31 28 27 29 30 29 27 25 23 22 22 20 19 17 16 16 16 18 19 20 20 22 23 24 24 24 24 25 26 26 25 23 22 21
3 2 2 3 2 4 6 2 1 3 2 1 2 4 5 3 3 4 8 9 8 9 6 3 6 7 3 3 6 6 6 4 8 12 12 12 14 16 16 15 13 15 19 18 15 16 20 25 31 32 32 31 27 26 27 29 29 26 24 23 22 21 22 20 19 18 18 19 20 20 20 21 22 22 23 23 23 23 23 24 24 23 22 21 21 21
3 5 2 2 2 3 2 1 3 3 4 2 3 6 4 2 3 1 6 6 7 9 6 4 9 11 9 4 3 3 8 9 10 12 11 13 16 16 15 13 13 18 20 16 15 18 22 27 31 31 29 28 25 25 27 27 25 24 22 21 21 20 20 19 19 19 19 20 21 20 21 21 22 22 22 22 21 21 22 22 21 20 20 20 21 21
2 5 1 2 1 1 2 2 2 3 4 5 4 2 2 1 2 3 4 5 8 11 9 8 11 9 7 5 5 7 9 9 11 11 12 17 19 18 15 13 16 21 18 13 13 16 23 28 29 28 27 24 24 26 26 24 24 24 22 22 21 20 20 21 22 22 21 21 21 20 20 20 20 20 20 20 20 21 21 21 20 20 21 21 21 20
1 3 1 2 1 1 2 1 2 2 4 5 5 2 2 1 3 2 2 3 5 9 11 13 13 7 3 4 9 10 7 8 12 12 13 18 21 20 16 15 19 20 15 13 13 17 25 28 26 26 24 20 21 24 25 26 27 25 23 23 24 24 25 27 26 25 24 23 22 20 20 19 19 18 18 19 21 22 22 21 20 19 18 18 18 18
1 2 3 1 1 3 0 1 2 1 2 2 3 3 3 1 2 3 3 2 2 6 10 14 13 8 4 3 7 9 6 7 10 12 16 20 21 20 17 18 21 19 16 15 15 19 25 26 26 25 20 17 19 24 27 29 27 24 24 26 27 27 28 28 27 25 25 23 21 20 19 19 17 17 19 21 22 22 20 18 16 16 17 18 19 19
1 2 4 5 4 3 2 3 1 2 4 4 3 2 3 3 2 3 3 1 1 3 6 10 13 11 4 2 5 7 5 8 12 15 20 21 21 20 18 19 21 17 16 17 17 22 26 26 27 24 19 19 24 29 30 27 24 25 28 29 28 28 27 27 26 25 24 23 20 19 19 19 19 20 21 21 21 19 17 16 17 19 20 21 22 22
1 1 3 5 7 4 5 5 2 5 9 7 4 2 1 1 2 3 5 3 3 5 5 7 11 10 2 2 6 10 8 10 16 19 22 20 18 18 18 20 19 15 16 18 20 24 25 26 25 22 21 24 28 30 27 24 24 27 28 28 28 27 26 26 25 24 23 21 19 20 21 21 21 20 20 20 20 19 18 20 21 22 23 24 25 25
1 1 2 5 6 1 5 5 3 5 6 5 4 3 2 1 1 1 3 3 5 7 7 8 10 7 1 1 12 17 11 13 19 22 23 20 16 18 20 19 16 14 16 18 21 24 25 25 22 21 24 28 29 27 24 24 27 28 27 27 27 26 25 24 23 22 21 20 21 22 22 21 20 20 20 20 20 20 22 24 25 26 26 27 27 26
1 1 2 5 4 1 1 1 1 2 2 1 3 4 2 3 2 1 1 0 3 6 7 9 10 8 6 9 18 20 15 18 22 22 21 18 16 17 18 16 14 14 16 17 19 22 23 22 22 25 29 30 28 25 23 26 29 28 28 27 24 23 23 23 21 20 21 22 23 22 20 19 19 20 21 23 24 26 27 28 28 28 27 26 25 24
1 1 2 3 5 5 5 5 4 5 5 2 3 4 2 3 3 1 2 2 3 6 7 9 12 15 16 18 22 21 17 21 25 23 20 17 16 17 16 14 13 14 17 18 18 19 20 21 25 30 32 29 25 23 24 27 29 29 27 25 23 22 22 20 19 20 22 22 21 20 20 20 22 24 26 27 27 27 26 26 25 24 23 22 22 22
0 1 1 1 2 5 7 10 11 9 8 7 4 1 3 3 2 1 3 5 5 9 10 10 14 21 24 23 24 21 19 22 24 23 21 17 18 19 15 12 14 15 17 18 17 18 20 23 27 30 29 24 21 21 25 28 29 29 26 24 23 21 20 20 19 20 21 20 21 22 23 24 26 27 27 26 25 24 24 23 22 22 22 22 22 22
0 1 2 2 6 9 11 15 15 11 10 11 8 3 5 5 4 4 5 7 6 8 10 11 15 23 24 23 23 20 19 22 21 21 20 18 19 18 13 13 18 19 19 17 17 19 21 21 24 27 25 20 20 22 25 27 29 28 25 23 22 21 20 20 19 20 20 21 23 25 26 26 26 25 24 24 24 23 23 22 22 22 22 22 22 22
1 1 1 1 7 11 13 15 14 11 9 9 8 7 6 6 7 7 8 8 6 6 12 17 21 23 23 20 18 18 21 22 20 18 18 18 19 16 13 16 19 20 20 18 17 19 20 20 22 25 22 20 21 24 26 27 28 26 24 22 22 21 21 19 19 20 22 24 27 27 26 25 24 24 24 24 23 23 23 23 23 23 23 23 23 22
1 1 1 1 7 11 12 11 9 7 7 8 8 9 8 7 8 8 9 11 11 14 19 21 23 23 18 13 14 19 21 19 17 16 16 18 19 15 13 17 19 19 19 18 17 18 20 20 22 22 21 20 23 26 26 27 26 24 22 22 22 21 20 19 20 23 25 27 27 25 24 24 24 24 24 24 23 23 23 24 24 24 24 23 23 23
1 1 2 1 5 7 5 3 3 5 7 10 9 8 8 7 8 9 10 10 12 15 18 19 20 18 11 9 15 21 20 16 17 17 17 18 16 13 14 17 18 19 18 17 17 17 18 20 21 22 20 21 25 27 27 26 24 22 22 23 21 20 20 21 24 26 28 27 25 23 24 25 25 24 24 23 23 23 24 24 24 24 24 24 23 23
1 1 1 1 5 4 3 1 4 3 3 7 9 9 10 9 7 8 9 10 11 13 16 16 14 12 9 12 19 21 18 18 18 18 18 16 12 12 15 16 17 17 17 16 17 17 17 18 21 22 21 22 25 27 27 25 23 22 22 22 20 20 22 24 26 27 26 24 23 24 25 25 25 24 24 23 23 24 24 25 25 25 24 24 24 23
0 2 1 1 5 3 1 5 8 1 1 3 4 6 11 10 9 10 10 11 12 12 11 10 10 10 12 16 20 20 18 18 16 16 17 14 11 12 15 16 16 16 15 15 16 17 16 18 21 22 20 23 25 25 25 24 22 22 21 20 20 22 25 26 25 24 23 22 23 24 25 25 25 24 24 24 24 25 25 25 25 24 24 24 23 23
1 1 0 1 3 4 5 10 7 2 2 3 2 5 9 8 8 11 12 14 14 11 10 11 12 11 12 17 18 17 16 15 14 16 15 9 8 12 14 15 15 15 15 15 17 18 18 19 22 21 20 23 25 24 23 22 21 21 20 20 22 24 25 25 24 22 22 22 24 25 25 25 25 24 24 24 24 25 25 25 25 24 23 23 22 21
2 1 1 1 2 4 6 8 5 1 2 1 4 5 7 7 9 14 18 18 15 12 12 13 13 12 13 16 14 14 14 13 15 16 10 4 6 11 13 14 14 15 15 15 17 19 19 21 22 21 21 23 24 23 23 22 21 20 20 21 23 24 24 23 22 21 21 23 25 25 25 25 25 24 24 25 24 24 24 24 24 23 22 21 20 20
2 1 1 1 2 3 4 4 3 5 2 4 4 4 5 7 9 12 15 13 10 9 10 11 12 12 13 14 12 11 12 14 15 10 1 3 6 10 12 12 12 15 16 16 19 21 20 22 23 21 21 22 22 23 23 22 20 20 20 22 23 23 23 22 21 21 22 24 25 26 26 25 25 24 25 24 24 23 23 22 22 22 21 21 22 21
2 2 1 1 1 1 4 2 4 7 4 3 4 4 5 5 6 6 8 7 6 7 7 8 12 14 13 13 12 12 11 12 10 1 4 5 9 11 13 13 14 17 18 18 20 20 20 21 21 21 22 22 22 22 22 21 20 21 22 22 23 23 22 20 20 21 23 25 26 26 25 24 24 24 24 23 23 23 23 22 23 23 22 22 24 25
1 2 2 2 0 1 3 4 3 5 4 1 3 5 5 4 3 1 5 6 4 7 6 7 12 14 14 13 14 14 11 10 7 3 4 9 13 14 14 14 16 19 19 19 21 20 20 21 20 20 22 22 21 22 21 20 21 22 21 21 23 23 21 20 21 22 24 26 26 25 24 23 23 23 23 23 24 25 25 25 25 24 23 23 25 28
1 1 1 1 2 1 1 3 3 3 3 1 5 6 5 3 4 4 3 4 4 7 6 6 10 12 12 12 13 12 10 8 8 7 9 13 15 16 16 16 18 20 19 19 20 20 20 20 19 20 21 21 21 23 21 19 21 21 19 20 23 22 20 20 21 23 25 26 25 24 23 21 21 22 22 24 26 26 26 26 25 24 25 25 26 27
2 0 1 2 2 2 2 2 3 5 5 3 7 6 4 6 8 3 5 4 4 6 5 5 8 10 10 10 10 7 6 7 9 11 12 15 16 15 15 17 19 21 20 19 19 19 19 20 19 20 21 21 21 22 20 18 20 20 18 20 22 21 20 21 22 23 24 24 23 23 21 20 21 22 24 25 25 26 25 24 24 25 27 28 25 24
2 1 1 2 2 3 3 3 4 5 4 4 7 6 7 9 6 3 7 4 1 2 3 3 7 9 8 8 7 5 5 7 10 12 14 14 14 14 15 16 17 19 19 19 19 19 19 18 18 19 21 20 21 21 18 17 19 19 17 20 21 20 21 22 22 23 23 23 23 22 21 21 22 24 25 25 24 25 25 24 24 26 28 27 25 25
1 2 1 1 1 2 3 3 5 5 2 5 7 6 7 4 3 5 4 1 2 4 5 4 6 7 6 7 7 7 8 10 11 12 12 12 12 14 15 16 18 18 18 18 18 18 18 18 18 19 21 20 19 19 17 16 19 18 17 20 21 20 21 22 22 22 22 22 23 23 23 24 25 25 26 25 23 24 25 26 25 25 25 23 23 25
2 1 2 2 2 2 1 2 4 5 1 8 8 5 4 5 5 4 3 2 2 4 6 6 6 5 6 7 8 9 10 11 11 10 10 10 11 13 15 15 16 17 18 18 18 18 18 19 19 20 21 19 18 18 16 16 18 17 17 21 21 20 21 21 20 22 22 23 24 24 25 26 27 27 26 24 22 23 24 25 25 24 21 18 19 20
4 3 2 2 3 2 2 3 2 2 2 9 7 3 5 5 2 2 3 4 3 3 4 5 5 4 5 7 8 10 10 10 9 8 9 9 10 12 15 15 15 16 17 16 17 18 18 19 18 19 20 19 18 17 15 16 17 17 18 20 20 20 20 20 21 23 24 24 25 26 27 28 28 27 24 22 22 22 22 22 23 20 17 16 17 17
4 3 1 2 3 3 4 6 3 1 3 8 8 7 6 4 2 2 4 5 5 3 3 4 5 4 4 6 8 9 9 9 8 8 8 9 9 11 14 14 14 15 15 15 16 17 18 18 18 20 20 18 17 16 14 15 17 17 18 19 18 18 19 21 23 25 24 25 26 26 28 29 27 25 23 22 22 19 18 18 18 17 16 16 17 16
2 2 0 2 2 4 9 11 9 8 8 7 7 6 5 4 4 5 6 6 5 4 3 4 5 5 4 5 7 8 8 8 8 8 7 8 9 11 13 13 13 13 14 15 15 16 17 17 17 19 20 18 16 15 13 14 15 16 17 18 17 17 19 22 25 25 25 26 27 26 26 26 24 22 22 21 20 16 15 15 15 15 15 15 15 16
2 4 4 4 1 2 6 6 6 8 10 6 4 4 5 6 6 6 6 7 5 5 5 5 5 5 4 5 7 8 9 8 7 7 6 6 9 11 12 12 12 12 14 15 15 16 17 16 16 19 19 17 16 14 13 14 15 14 15 16 16 17 20 22 24 25 26 27 26 24 23 22 21 21 20 19 17 16 15 15 14 13 14 15 15 16
2 4 5 6 6 7 8 7 6 8 8 6 6 6 5 7 8 9 8 7 5 5 5 6 5 5 5 5 6 8 9 8 7 7 6 6 8 10 11 11 11 12 13 14 15 16 16 15 17 18 18 17 15 14 13 14 14 14 14 15 16 18 21 23 24 25 26 25 22 20 19 19 19 19 18 17 16 16 16 15 14 13 14 14 15 16
4 4 4 4 6 9 12 12 10 10 9 8 9 8 7 7 8 9 8 7 7 6 6 6 7 6 6 6 6 7 8 8 6 6 6 6 7 9 11 11 11 11 12 14 15 15 15 15 16 18 18 17 15 13 13 14 14 14 14 15 16 18 20 23 25 25 24 21 19 17 17 17 17 17 17 17 17 17 17 16 14 14 15 14 13 16
4 5 4 2 4 7 8 7 4 5 8 6 6 8 9 8 8 9 9 8 8 8 7 6 6 7 7 8 7 7 8 8 6 6 6 7 8 9 10 11 10 10 11 13 14 14 14 14 15 16 17 16 15 13 13 13 13 13 14 15 16 17 20 23 24 22 20 18 16 16 16 16 16 16 16 17 17 20 22 20 15 11 12 14 15 16
8 7 7 6 6 7 5 4 5 4 8 5 3 6 8 8 8 9 10 9 9 8 7 7 6 7 7 8 8 8 8 8 7 6 7 8 8 8 9 9 10 10 11 12 13 14 14 14 15 15 16 16 14 13 13 13 13 13 15 15 16 17 20 23 21 19 18 17 16 17 18 17 16 16 16 16 16 18 20 22 19 12 9 12 16 16
Wind_Direction
309 45 44 26 3 353 5 9 346 300 281 291 292 287 284 288 297 308 318 58 55 330 305 314 323 324 351 30 20 8 23 25 23 35 58 96 106 109 106 99 91 84 85 89 81 63 58 42 359 346 339 333 327 323 318 312 305 297 288 278 272 270 267 269 273 276 278 281 285 289 294 298 299 300 303 305 307 308 308 310 312 313 313 313 312 310
8 49 38 6 348 333 354 346 229 258 268 277 294 301 293 286 305 308 308 97 74 345 317 325 330 339 34 43 23 22 31 27 23 30 55 86 93 98 96 88 84 81 79 64 33 11 357 340 331 327 322 319 314 311 309 304 299 293 283 271 266 264 262 262 266 272 274 273 276 283 289 295 298 298 301 303 306 308 309 312 314 314 314 313 312 311
56 51 20 351 339 271 251 175 224 247 258 284 314 315 311 328 322 299 269 130 43 332 321 331 331 4 82 64 42 41 43 40 38 44 59 79 90 91 88 84 75 58 38 16 3 349 341 331 317 308 306 307 305 303 302 298 293 286 275 265 263 266 266 266 268 271 272 273 273 276 282 289 294 296 299 300 302 304 306 310 312 311 310 308 309 308
58 39 20 355 265 273 281 292 296 275 271 329 345 336 324 335 334 306 297 332 328 313 309 317 314 102 115 87 62 52 52 57 56 60 67 75 86 88 81 69 45 27 9 356 349 340 330 318 307 297 292 296 298 296 296 293 287 279 271 266 265 265 266 264 267 270 272 275 274 273 277 282 288 291 295 298 298 301 304 307 307 304 303 302 301 300
77 40 30 216 245 293 296 5 360 341 343 352 360 352 328 321 314 298 303 319 319 281 352 331 317 159 136 92 72 63 62 65 64 69 75 80 83 77 59 39 24 13 356 345 338 325 312 304 299 292 287 288 288 287 289 289 285 279 273 266 259 257 260 261 265 271 272 274 275 276 280 283 287 290 294 297 299 302 305 306 306 302 298 296 294 293
74 67 240 255 236 268 323 14 22 359 335 338 28 5 313 305 301 300 307 323 327 356 46 2 333 306 122 92 78 78 73 67 67 74 78 80 69 47 31 20 10 2 347 333 318 304 297 294 290 287 287 286 285 288 293 295 291 284 278 273 264 254 254 260 263 270 273 272 274 277 280 285 290 292 293 296 299 302 304 304 304 301 296 294 293 291
71 133 234 306 245 320 8 20 43 5 330 336 63 222 285 293 295 302 315 336 335 319 356 13 329 316 332 95 92 92 85 76 73 74 70 57 40 25 17 8 359 347 331 316 304 294 291 292 294 299 303 305 306 309 311 309 303 295 290 286 274 257 253 263 269 275 278 276 276 277 277 281 287 291 292 295 297 298 301 302 301 299 296 294 294 293
49 355 12 5 341 20 10 0 26 13 330 330 340 283 286 292 294 301 315 325 303 303 306 233 264 299 319 72 116 110 86 80 73 65 51 33 21 12 5 354 339 320 308 306 304 301 306 312 317 321 324 326 327 326 324 322 318 312 305 292 274 257 255 270 280 285 285 279 278 278 278 281 285 289 293 297 297 296 298 299 299 297 295 293 293 292
1 349 15 7 12 31 356 332 357 4 311 310 307 296 285 285 290 293 301 292 282 296 300 36 4 309 314 14 141 127 83 79 70 53 33 21 13 1 349 334 320 311 310 317 321 324 327 331 333 335 337 337 335 333 331 329 326 323 316 301 282 266 265 281 289 291 289 283 278 276 276 279 283 287 292 296 297 298 300 300 301 301 297 295 294 293
63 6 359 344 22 25 325 322 352 119 308 308 293 285 270 254 265 273 282 267 247 288 357 21 15 335 311 321 137 75 58 73 63 47 25 14 2 345 333 325 326 328 327 329 333 334 334 336 342 345 342 339 337 336 335 334 333 330 327 317 299 283 281 289 295 297 295 289 280 275 274 277 282 286 290 293 295 299 303 303 304 305 303 299 298 296
97 114 247 336 27 2 310 313 44 175 278 291 289 292 273 220 200 207 233 246 253 338 11 23 6 325 302 328 64 23 47 74 48 18 8 1 349 338 333 332 335 337 336 336 335 333 335 342 345 343 340 338 336 334 332 332 331 329 328 324 315 306 299 297 300 299 297 293 284 275 273 276 281 285 288 291 294 300 303 302 303 305 304 301 298 297
119 157 155 29 356 333 292 281 171 199 269 294 318 332 332 247 173 201 235 286 341 340 13 341 327 307 288 324 89 101 102 98 52 14 358 346 342 339 338 338 339 339 336 335 334 333 338 342 340 339 339 337 333 329 326 325 324 322 317 312 307 304 301 300 300 299 298 296 286 276 274 279 285 288 291 295 298 302 302 302 303 304 303 300 297 295
127 130 37 207 155 344 312 306 144 183 315 352 2 1 3 2 356 334 334 349 326 319 339 325 322 307 288 343 118 136 136 125 59 28 347 334 340 338 339 340 337 338 338 337 336 335 337 337 338 340 338 334 330 326 323 321 321 320 315 310 305 300 300 303 305 305 306 301 291 283 284 289 293 296 299 302 302 303 302 300 300 300 299 297 295 293
74 119 62 16 148 322 334 358 19 350 4 18 17 12 14 7 345 321 328 333 309 304 318 319 309 287 311 6 150 154 147 145 52 24 315 336 342 338 340 339 336 342 342 336 333 333 334 336 339 339 334 330 326 323 321 322 325 327 327 325 321 317 318 319 320 320 322 321 315 310 308 306 306 305 305 304 302 301 300 298 297 295 294 292 291 290
348 28 48 24 353 348 12 26 11 338 14 40 34 22 29 35 325 295 311 319 307 303 309 314 295 285 325 9 151 152 157 170 4 0 342 341 343 341 340 337 339 344 339 331 329 330 333 336 338 335 330 326 323 323 326 331 333 335 336 337 338 342 348 353 358 360 358 352 341 330 321 315 310 307 304 302 300 299 298 296 294 292 291 289 287 286
299 261 77 54 332 1 19 29 285 309 44 75 48 20 11 350 256 258 273 269 270 285 299 314 289 288 322 122 142 166 186 194 324 342 343 342 342 342 338 336 341 342 334 328 326 330 335 338 336 332 328 326 325 330 336 340 341 342 347 353 360 7 10 9 8 3 353 343 333 325 318 312 309 305 303 301 300 299 298 296 293 291 290 287 285 285
311 277 74 79 109 42 23 7 14 344 330 25 2 3 3 321 256 281 285 268 266 287 301 311 304 310 335 129 161 198 235 283 331 337 340 338 338 340 338 337 341 339 333 328 327 332 338 338 334 330 329 329 332 341 346 346 349 352 357 1 3 3 1 355 351 346 339 331 324 318 314 311 309 307 305 303 302 302 299 296 293 290 288 285 285 287
310 296 354 87 123 78 15 351 80 29 325 11 15 343 333 219 188 336 313 307 318 313 301 303 310 316 326 326 176 237 301 318 330 335 335 336 339 340 338 336 338 338 335 332 334 336 336 335 332 331 334 337 344 349 347 346 350 351 351 352 351 350 349 346 340 333 328 324 319 315 312 311 311 309 307 306 306 305 302 297 293 291 289 287 288 289
261 289 328 114 48 68 144 216 113 70 26 65 83 336 330 272 279 334 319 311 326 321 309 314 319 314 314 322 332 329 323 323 329 334 338 341 341 338 336 338 338 338 337 336 338 337 334 333 332 332 336 343 350 347 343 343 344 341 338 340 343 342 339 336 331 326 323 321 318 314 313 313 313 312 311 310 309 307 303 299 294 292 290 288 289 289
224 292 349 138 255 294 145 222 286 58 65 90 105 78 40 337 290 305 295 276 310 317 312 315 317 315 317 325 330 331 327 327 334 337 341 343 340 335 335 338 338 339 338 337 337 335 333 332 332 332 336 345 349 343 339 337 334 332 332 335 337 335 332 330 328 326 324 322 320 318 317 318 317 315 314 312 310 307 303 299 297 296 297 298 299 301
223 251 287 266 245 270 141 58 334 56 72 53 53 34 17 1 234 240 243 227 298 310 314 316 308 303 334 348 331 330 331 339 343 341 339 339 338 335 335 336 338 340 338 337 335 333 332 332 332 332 335 342 342 338 336 332 330 333 335 335 333 330 329 328 327 326 325 325 323 322 323 322 321 317 314 311 310 306 303 305 307 308 310 309 307 306
288 216 280 307 320 314 69 84 1 71 76 43 28 35 19 12 351 311 299 140 139 269 290 300 289 291 323 36 334 334 347 353 350 343 338 336 336 337 336 335 338 340 338 337 335 334 334 334 334 333 332 333 336 337 336 334 335 336 333 330 328 327 327 326 326 326 326 324 324 326 327 325 321 317 314 313 311 309 309 313 313 311 309 307 305 303
311 259 275 286 292 317 73 87 61 94 103 92 74 105 130 47 35 335 313 317 298 270 269 275 277 290 317 144 325 339 0 358 348 340 336 335 336 337 335 335 338 339 338 337 335 334 334 335 336 336 330 329 333 336 337 339 339 335 330 329 327 326 326 325 326 326 325 326 326 328 327 322 319 317 317 316 313 311 313 314 311 309 307 305 303 300
226 234 271 277 270 227 94 93 101 122 130 115 81 92 127 109 83 302 297 323 309 286 296 298 281 282 198 249 325 337 349 347 340 336 335 334 334 337 337 337 340 339 336 336 334 333 334 333 335 337 333 329 329 333 336 338 337 333 330 328 326 325 327 328 328 328 329 329 327 325 323 321 322 322 321 320 316 312 311 310 308 306 303 302 300 298
216 218 296 312 322 13 93 71 125 203 252 354 83 101 103 103 115 223 207 135 283 267 291 303 284 281 303 316 327 334 336 335 335 334 335 333 333 338 338 337 338 336 334 334 333 334 336 335 332 333 332 328 326 329 333 335 335 333 330 328 327 328 330 330 331 332 332 330 326 325 325 326 327 326 322 319 314 309 307 305 303 302 301 300 298 296
275 326 332 353 358 342 321 312 310 304 307 328 121 130 113 119 140 221 250 244 271 285 294 286 278 293 308 316 326 334 335 333 333 333 334 334 335 337 336 334 335 333 334 335 333 334 337 336 333 330 329 327 327 330 331 332 333 332 330 330 331 331 332 332 333 334 333 331 330 330 330 329 326 321 317 313 310 309 307 306 305 304 303 301 299 297
191 246 262 228 255 286 288 284 293 307 302 289 276 174 142 144 155 213 250 257 289 306 290 257 268 295 307 316 326 334 335 332 331 333 334 334 335 335 334 334 333 334 336 335 334 334 333 333 333 331 330 331 333 333 331 331 333 333 332 333 333 332 332 333 334 334 334 334 335 332 327 324 320 317 316 314 313 312 311 310 308 307 306 303 300 298
107 240 238 215 234 254 271 278 286 296 285 279 285 259 172 165 169 183 230 263 295 309 287 272 290 301 304 314 326 331 330 329 330 332 333 332 332 333 333 333 334 335 335 333 336 337 333 332 334 333 334 336 336 334 332 331 333 334 333 332 333 333 332 334 336 337 337 335 331 326 323 321 319 319 318 317 315 313 311 311 310 308 307 304 301 299
301 269 172 204 254 263 267 271 276 279 273 270 270 255 222 192 186 200 237 256 255 261 273 288 302 303 300 310 324 328 326 327 327 328 330 330 331 333 335 335 334 333 331 331 336 337 333 332 334 335 336 336 334 334 333 332 332 332 332 333 333 332 333 337 339 337 333 330 326 324 323 322 320 319 318 317 316 315 313 312 311 309 308 305 302 300
237 226 118 243 277 277 269 266 265 256 258 264 258 248 232 213 217 232 246 251 248 252 265 284 295 295 298 311 323 324 325 324 322 324 328 330 332 337 337 335 331 328 329 331 333 334 333 333 334 335 335 334 333 333 333 333 333 332 333 333 333 334 338 340 337 332 329 327 326 326 325 323 322 320 319 318 317 316 315 314 312 310 308 306 303 301
290 346 83 153 285 287 267 248 234 227 258 275 268 243 223 229 246 248 250 258 260 261 273 288 292 292 302 324 322 322 324 321 320 326 329 331 335 339 335 331 327 325 328 331 331 331 333 335 337 336 333 334 334 333 333 334 334 333 333 333 335 338 340 337 331 328 327 326 327 328 326 324 322 321 320 319 318 317 316 314 313 310 308 307 305 302
324 308 96 82 305 290 156 205 276 242 245 273 268 243 221 222 241 241 244 254 259 274 289 294 291 295 315 326 320 320 321 319 322 328 329 329 336 338 331 327 325 325 327 329 331 332 332 336 338 335 332 333 333 333 334 333 333 334 333 334 337 338 335 332 329 328 328 328 328 328 326 324 322 321 320 320 319 317 316 314 313 311 309 307 306 303
141 271 281 31 303 280 116 323 307 279 179 263 262 225 212 217 244 257 261 262 261 275 289 286 284 294 308 316 317 318 318 320 325 326 325 328 335 334 328 324 324 326 328 330 333 333 332 336 337 334 333 334 333 333 334 333 332 332 332 334 336 335 332 330 330 329 329 330 329 328 326 324 323 322 321 320 318 317 315 314 313 311 309 307 305 303
162 262 268 126 282 284 326 322 300 229 272 316 92 161 192 207 242 264 277 281 277 269 257 261 276 286 299 311 314 313 313 319 321 316 317 327 335 329 325 324 327 330 330 333 336 335 335 337 336 332 332 334 334 333 333 332 332 330 331 333 333 332 332 331 331 331 330 330 330 328 326 325 323 321 320 319 318 317 315 314 312 310 309 307 305 303
166 218 175 143 259 276 321 331 316 325 16 94 138 164 192 215 244 264 274 273 269 263 251 257 272 282 296 307 308 305 308 312 310 304 306 334 336 328 326 327 333 336 334 337 338 335 336 338 335 331 331 333 334 334 333 332 331 331 331 333 332 332 332 331 331 331 330 330 329 327 326 325 323 321 319 319 318 316 315 314 311 310 309 307 304 301
193 187 172 204 238 274 327 357 332 321 352 147 184 209 215 241 263 280 282 262 241 243 246 255 274 288 300 304 305 309 310 306 302 293 264 45 350 338 332 330 337 340 338 338 336 332 334 337 333 329 329 330 332 334 334 332 331 332 332 333 333 332 332 331 331 331 331 330 328 326 326 325 323 320 319 318 318 317 315 314 311 311 310 307 305 302
209 166 198 259 171 313 310 272 254 292 302 163 192 205 202 246 283 304 299 271 216 207 228 264 288 301 308 310 314 319 311 303 302 267 117 23 356 348 338 334 341 342 338 335 332 329 331 333 330 326 326 328 330 333 333 331 333 333 331 332 334 333 332 332 331 332 331 329 327 326 325 324 322 320 318 318 318 316 315 314 313 314 314 311 309 310
204 235 260 284 250 131 305 296 275 291 302 172 171 172 178 231 272 263 281 281 212 181 209 271 297 307 316 321 324 327 320 312 318 355 8 353 352 349 340 338 342 340 336 333 330 329 330 331 328 326 327 327 329 333 331 331 334 332 329 332 334 333 332 332 331 332 331 328 326 325 323 322 320 318 317 317 316 315 316 317 316 316 317 315 313 316
123 289 228 246 267 179 263 309 285 268 284 182 160 174 190 199 156 149 254 277 183 180 221 277 298 309 320 324 325 331 335 328 325 335 346 347 345 343 340 339 339 337 334 331 329 328 329 329 326 328 329 328 329 332 330 330 335 332 327 332 334 332 331 332 331 331 328 326 324 322 321 320 318 317 316 316 316 316 317 318 318 318 320 320 320 321
135 328 204 216 252 183 186 262 258 251 260 186 161 175 167 140 140 165 302 312 160 184 231 281 300 310 318 319 321 328 331 318 311 319 333 337 334 335 338 337 335 334 332 330 329 327 327 328 327 330 332 329 329 331 329 332 336 332 328 332 333 331 330 330 330 328 326 323 322 320 320 319 318 317 316 315 316 316 317 318 318 321 326 328 327 324
158 184 219 242 252 189 196 251 269 262 255 178 167 166 139 133 150 273 314 342 141 223 266 285 298 307 310 307 308 303 292 295 298 307 320 327 326 328 334 335 332 330 329 327 326 326 326 326 327 330 331 329 329 330 329 332 335 331 330 332 331 329 329 328 327 326 324 322 321 320 320 319 319 319 319 319 319 317 320 324 324 326 330 331 329 329
174 179 201 224 224 189 197 239 265 273 240 154 157 148 138 156 267 300 317 358 317 304 307 294 292 300 296 287 286 283 287 294 297 304 315 320 319 324 330 333 330 328 328 327 325 326 327 324 324 329 331 330 330 329 328 332 332 329 330 331 329 327 328 327 327 326 324 322 321 320 320 322 324 325 326 327 323 318 322 330 332 334 335 331 329 331
165 189 231 207 187 188 215 244 286 311 209 157 152 138 168 220 281 320 320 303 287 285 293 290 283 284 284 282 282 283 287 293 297 303 310 311 314 321 326 329 328 324 325 326 325 326 327 323 323 329 331 331 331 329 328 331 330 328 330 331 328 327 328 327 327 326 324 323 322 322 323 326 329 332 332 328 323 321 325 332 337 338 337 331 327 328
182 193 248 233 189 185 230 234 265 348 147 171 182 211 223 229 277 327 280 278 268 252 275 285 275 266 268 278 286 288 288 291 295 302 307 307 313 321 323 325 326 322 323 324 324 326 326 321 319 325 329 331 331 328 329 331 328 327 330 330 328 328 328 327 327 326 325 323 323 324 327 331 334 336 334 328 325 325 327 332 337 336 332 330 330 330
197 187 263 263 207 211 257 254 248 17 154 182 206 243 252 239 206 199 234 260 268 250 245 270 275 269 259 271 284 287 284 287 294 300 304 307 314 319 319 321 322 321 321 321 321 325 325 318 317 322 327 330 331 329 329 330 328 327 330 330 329 329 328 328 328 327 324 324 325 326 329 332 334 334 331 330 329 325 322 327 332 329 329 332 333 334
208 136 125 253 232 279 276 259 249 265 263 228 211 231 245 228 196 196 218 238 250 242 228 249 268 266 257 267 277 279 281 286 291 296 301 305 311 313 313 315 319 320 320 320 322 325 323 317 316 320 323 326 330 330 328 329 328 327 329 330 329 329 329 328 327 325 324 326 328 328 329 330 330 329 328 331 332 325 319 324 324 321 327 333 333 335
190 155 200 228 214 299 273 238 212 243 259 245 205 209 225 223 210 203 215 231 237 232 224 227 243 251 252 258 264 272 279 283 287 294 302 306 307 308 308 311 317 320 320 320 322 324 322 318 317 319 320 323 328 329 327 328 328 327 329 330 329 329 330 328 326 324 325 329 329 327 326 326 325 325 326 328 330 327 325 328 327 323 326 330 333 336
144 162 213 228 212 226 259 268 258 254 250 229 215 222 225 221 211 204 212 225 227 222 215 207 213 231 242 247 255 267 276 279 281 290 300 302 299 302 305 309 314 317 318 320 322 321 319 317 317 318 318 320 324 326 326 327 326 328 331 331 331 331 330 329 328 327 326 328 326 324 325 324 322 323 324 324 325 325 324 326 328 326 325 326 330 332
107 166 205 221 229 249 269 275 273 273 262 232 218 224 225 212 203 203 208 213 214 216 211 204 207 218 231 243 251 259 268 275 278 282 291 295 294 296 301 307 312 316 318 319 320 318 314 314 316 316 316 317 319 323 325 324 324 328 332 331 332 333 331 331 331 329 325 325 324 323 326 326 323 323 324 323 323 324 325 326 321 314 317 323 327 326
152 202 191 183 251 260 259 244 228 274 279 254 207 208 212 198 192 200 205 208 216 219 214 215 218 216 220 232 238 245 259 271 273 275 280 284 288 294 299 303 310 315 316 317 316 313 309 311 314 314 313 314 315 318 321 322 322 327 330 330 332 334 333 333 332 328 325 325 325 325 327 326 324 325 325 325 325 327 333 340 338 322 316 321 326 328
198 206 176 182 233 252 250 207 175 227 269 274 197 191 193 181 187 204 211 215 219 212 203 213 229 227 224 226 224 230 250 263 263 266 275 279 284 291 296 301 308 313 314 314 313 309 307 310 313 313 310 310 311 314 317 318 320 324 327 330 332 333 336 338 335 328 325 325 323 324 326 323 323 325 324 325 327 325 329 337 344 347 339 332 335 336